Wind_Speed
11 16 12 15 20 27 33 37 38 36 32 36 27 24 27 21 23 26 29 32 32 35 36 38 37 35 34 36 39 39 39 40 39 36 38 39 41 41 45 46 46 47 47 47
15 8 11 14 19 23 26 27 27 25 22 22 26 29 28 32 33 35 36 34 35 38 36 36 36 36 38 41 42 41 41 41 38 37 37 40 43 44 47 47 47 47 48 50
13 14 18 17 18 23 26 26 24 26 32 37 36 34 34 35 37 37 33 35 38 39 35 35 37 39 41 42 40 41 42 41 40 40 41 44 47 49 50 50 49 48 48 48
19 21 20 19 19 20 23 21 25 31 38 40 42 42 41 37 38 36 34 35 38 35 35 38 38 39 39 39 40 41 42 42 42 43 44 44 45 46 46 47 49 51 53 55
21 25 23 21 19 22 17 22 25 33 42 39 38 37 36 30 29 30 33 36 36 31 32 33 34 36 36 38 40 43 42 36 37 37 41 44 46 48 50 51 52 53 56 59
28 30 28 26 28 27 25 26 27 30 36 37 37 39 37 33 32 32 34 34 33 31 33 36 36 36 36 37 37 37 37 38 40 42 44 47 48 48 49 51 49 49 52 56
27 28 29 30 33 32 31 32 32 34 36 39 38 40 40 39 36 35 36 37 36 35 32 33 34 34 35 37 39 41 43 43 44 44 46 47 49 48 46 48 49 48 51 56
27 29 28 28 30 32 32 32 34 36 36 36 37 39 39 36 36 35 32 35 37 38 36 37 36 35 38 41 44 45 45 46 46 46 46 45 46 48 48 48 50 52 51 54
31 30 30 30 29 30 32 31 31 33 34 34 34 35 35 35 36 35 34 38 41 42 41 39 38 40 42 43 44 45 47 48 49 48 49 51 53 52 53 54 54 55 56 58
11 12 28 34 33 34 36 36 36 38 39 39 39 37 35 35 34 30 30 34 37 40 42 43 41 42 43 45 48 51 51 51 51 53 54 55 58 59 58 58 58 60 62 63
12 8 10 14 28 37 41 40 40 40 40 39 37 36 35 35 35 35 37 41 43 44 44 44 44 45 47 48 51 52 55 55 56 58 61 62 61 61 62 64 65 66 67 67
25 13 12 15 18 18 22 28 36 41 42 41 42 43 39 38 37 36 36 39 40 43 43 44 44 44 44 45 48 50 51 54 56 58 59 62 64 66 67 68 67 67 67 67
21 15 15 16 19 19 17 18 19 22 25 29 32 34 35 34 36 35 35 36 37 38 38 40 41 42 47 47 47 51 54 55 57 59 62 64 66 68 69 70 70 69 68 67
18 19 21 21 21 21 22 21 20 20 22 22 25 24 25 31 35 36 38 38 40 41 43 44 45 47 49 53 56 56 56 57 60 63 65 66 67 69 67 66 66 66 68 68
22 21 21 22 23 22 23 23 23 24 24 26 23 27 25 33 31 34 36 39 41 44 46 48 49 51 54 56 58 59 60 61 62 63 64 65 64 64 63 64 65 66 66 65
21 20 21 23 23 24 23 23 26 26 26 28 27 28 28 30 32 33 36 39 42 43 45 47 49 50 52 53 56 57 59 61 62 61 60 60 61 62 63 62 62 62 63 65
21 21 21 22 24 24 25 24 25 27 27 29 31 31 31 32 34 35 37 39 42 44 46 48 50 52 54 56 57 57 57 57 57 57 57 57 57 57 59 59 60 60 60 62
21 22 22 22 24 26 25 25 27 28 29 30 31 30 31 32 33 34 36 38 40 43 46 48 51 54 55 55 55 52 48 48 50 50 50 53 54 53 53 56 60 65 69 72
20 21 21 22 22 24 23 24 25 26 27 27 28 28 29 31 32 34 35 35 37 39 41 44 46 49 47 45 42 40 43 44 44 43 44 45 49 53 58 62 66 70 73 74
21 21 21 21 22 22 21 23 25 24 23 23 25 26 28 28 28 30 32 34 35 38 40 42 42 39 36 34 35 34 33 32 35 40 44 49 54 58 61 66 69 69 64 60
21 21 21 21 21 21 21 23 24 24 21 22 24 25 25 25 28 30 35 37 39 40 40 42 39 35 33 29 27 26 28 32 35 41 46 50 54 60 66 68 61 59 62 60
20 22 20 22 21 20 21 24 24 22 20 21 22 23 24 25 29 32 36 36 37 36 37 37 33 31 26 21 21 27 31 34 39 44 47 52 60 66 60 56 58 60 59 53
20 19 20 21 19 19 20 21 22 23 22 21 20 21 23 28 32 35 36 35 33 32 29 29 24 21 18 20 24 26 29 34 40 43 48 57 59 56 55 57 60 60 46 38
19 20 20 18 18 19 21 21 23 25 23 22 22 24 26 28 31 29 29 28 26 28 25 17 16 16 18 22 22 28 34 37 38 43 51 51 53 51 55 58 53 37 32 23
20 20 19 19 20 19 20 23 27 28 28 24 24 25 25 28 27 25 23 25 26 19 16 12 13 13 16 21 26 31 32 33 38 44 46 51 52 50 55 46 36 27 23 14
22 22 21 20 22 21 23 26 27 28 28 26 25 24 28 25 22 22 24 19 16 12 8 9 10 13 14 21 24 28 30 34 39 42 44 49 49 46 45 37 25 15 13 3
Wind_Direction
214 249 235 229 225 203 201 201 211 215 224 230 239 245 264 233 234 238 245 243 247 243 241 244 252 256 259 260 259 261 263 264 266 267 267 266 266 266 264 264 263 265 269 271
217 176 210 220 218 216 217 217 213 209 211 217 226 230 226 237 231 234 238 234 236 239 240 243 247 251 253 255 257 261 264 266 268 267 264 263 263 263 265 265 265 266 268 270
217 192 198 213 209 211 215 207 204 204 209 216 218 225 228 229 229 235 234 232 235 241 242 247 251 250 250 252 257 261 263 267 267 264 263 263 264 264 265 269 271 272 273 271
226 216 215 209 209 211 213 207 201 207 212 215 217 222 227 225 230 231 233 234 239 244 251 255 255 253 256 257 256 256 260 262 266 267 267 267 267 269 273 275 277 278 279 279
222 227 227 218 217 219 211 216 209 206 212 218 227 231 230 235 235 236 240 244 248 245 241 247 250 250 251 253 256 257 258 261 259 257 257 257 259 262 263 263 265 268 270 273
220 228 226 224 224 224 216 221 221 219 223 232 233 240 246 242 238 247 249 251 255 252 246 247 252 256 258 256 256 256 257 259 260 257 257 258 257 258 261 264 267 271 272 273
225 225 232 231 230 231 227 224 227 228 229 237 240 247 251 253 254 247 250 259 262 261 260 259 260 258 256 259 262 263 264 263 262 261 259 255 256 259 262 266 269 275 276 275
224 225 230 233 235 237 236 232 235 238 240 241 240 244 249 251 253 251 250 255 260 261 257 256 255 254 256 259 264 268 270 272 270 268 269 266 264 267 273 276 273 274 276 276
239 225 228 233 235 238 241 242 241 242 246 249 249 252 255 256 256 259 257 254 254 256 257 256 257 259 259 259 261 263 264 266 269 270 270 271 273 276 276 277 277 276 277 276
230 229 233 232 228 231 236 237 239 241 244 245 247 251 257 259 262 261 259 256 254 254 255 256 256 256 259 260 263 265 264 266 266 266 269 273 276 277 276 276 276 276 277 280
224 237 231 226 230 239 241 243 243 244 249 252 255 255 255 258 261 262 260 259 257 256 257 259 258 258 259 260 261 262 262 265 266 269 271 275 278 280 281 282 282 281 281 282
221 226 233 245 250 245 241 244 246 246 252 257 260 261 264 265 262 260 255 255 256 259 261 260 259 259 258 260 262 263 265 267 268 270 274 277 279 281 282 282 283 283 282 282
219 237 236 233 241 251 253 249 251 252 252 253 256 259 259 261 261 256 254 253 255 260 263 264 267 268 265 265 270 271 272 273 275 276 278 280 281 281 282 283 283 283 281 280
241 238 243 241 230 237 245 250 256 261 263 267 264 265 264 259 255 256 255 254 258 262 264 265 265 267 267 270 273 276 276 275 276 278 279 280 281 284 285 284 282 282 283 282
243 244 247 250 250 245 244 249 252 257 264 269 269 270 262 266 266 264 261 260 260 260 261 262 263 265 268 270 272 275 275 277 279 281 283 285 286 285 283 284 284 285 285 284
248 248 248 251 252 251 251 252 255 258 261 264 270 271 270 265 265 262 261 262 264 266 266 266 267 268 270 271 272 273 276 279 282 284 283 283 283 284 285 285 284 283 284 283
244 249 249 251 254 254 254 256 261 265 271 272 274 273 272 270 268 265 264 264 266 268 271 272 273 274 275 276 278 280 282 284 283 281 281 283 284 284 285 285 285 284 283 283
237 241 244 248 252 256 260 260 261 264 269 271 272 273 272 270 269 269 270 271 273 275 275 276 276 276 278 279 280 282 280 277 278 283 285 283 285 286 284 284 285 286 285 284
247 247 249 250 251 255 255 258 260 264 270 273 274 272 271 273 274 277 277 277 276 276 277 277 277 278 280 281 281 279 282 284 285 285 287 288 289 292 292 291 290 290 289 289
250 250 253 254 253 254 255 259 266 271 276 272 269 272 274 275 275 277 279 279 279 280 280 281 283 284 277 277 283 285 287 291 293 292 294 299 298 296 296 295 295 297 296 292
244 246 250 253 252 254 260 265 270 276 272 269 270 273 276 278 280 281 283 284 283 284 286 286 290 288 288 289 290 290 294 297 299 304 304 301 300 300 302 306 305 300 298 297
242 247 250 250 253 256 260 270 276 279 274 272 270 271 275 278 282 282 281 281 284 286 287 289 291 292 292 293 295 295 295 302 306 303 302 304 307 308 310 308 304 302 299 300
244 248 249 252 258 258 259 266 276 277 271 270 275 277 279 281 283 283 285 287 287 286 286 286 284 281 287 300 309 312 308 304 306 310 311 311 313 316 314 309 305 304 305 301
246 248 249 254 257 262 266 274 279 276 269 272 274 275 280 287 287 284 282 282 281 283 283 275 280 288 291 310 316 315 316 315 315 316 315 320 325 323 318 312 309 307 308 300
251 254 255 257 259 265 274 274 277 281 280 281 279 284 292 294 287 283 278 283 285 279 280 272 282 290 307 311 317 319 323 325 325 323 326 330 329 327 323 318 316 314 308 279
255 257 257 258 264 269 269 272 277 281 280 281 283 292 297 290 284 279 284 278 271 262 240 278 305 307 313 322 330 338 335 333 332 332 331 335 334 332 329 327 323 310 324 271
Height
5692 5698 5699 5703 5705 5706 5708 5714 5722 5731 5735 5742 5743 5747 5753 5762 5765 5770 5777 5781 5787 5792 5796 5798 5801 5805 5807 5810 5811 5810 5811 5812 5815 5817 5818 5818 5817 5817 5816 5816 5816 5816 5816 5817
5690 5695 5699 5700 5703 5706 5710 5715 5723 5729 5734 5737 5739 5745 5753 5757 5759 5762 5768 5776 5781 5784 5788 5793 5796 5798 5799 5800 5800 5802 5804 5804 5807 5808 5809 5808 5807 5806 5804 5803 5805 5807 5806 5807
5689 5692 5693 5698 5699 5701 5706 5712 5721 5728 5729 5730 5734 5738 5747 5752 5753 5757 5764 5769 5772 5775 5779 5783 5786 5788 5790 5792 5794 5795 5795 5796 5797 5798 5798 5796 5795 5793 5792 5792 5792 5794 5795 5795
5686 5688 5690 5693 5697 5701 5703 5711 5716 5720 5721 5725 5730 5734 5739 5748 5751 5756 5759 5763 5765 5770 5773 5775 5778 5781 5783 5784 5786 5786 5787 5787 5788 5787 5787 5786 5784 5782 5783 5782 5781 5780 5780 5779
5685 5685 5688 5691 5695 5698 5706 5708 5713 5716 5717 5720 5724 5730 5736 5743 5748 5752 5754 5757 5760 5765 5768 5769 5770 5773 5775 5776 5777 5777 5777 5778 5778 5778 5777 5776 5775 5774 5774 5774 5774 5774 5772 5769
5678 5680 5683 5688 5689 5694 5701 5705 5710 5714 5716 5718 5724 5727 5730 5737 5742 5745 5747 5749 5753 5756 5759 5761 5763 5764 5765 5765 5766 5766 5767 5768 5767 5767 5767 5766 5765 5764 5764 5764 5763 5762 5760 5758
5673 5676 5680 5683 5685 5689 5695 5700 5704 5708 5711 5712 5718 5721 5725 5729 5733 5738 5741 5741 5743 5745 5747 5750 5752 5753 5753 5753 5753 5753 5753 5754 5754 5755 5756 5756 5756 5755 5754 5752 5751 5749 5748 5746
5668 5672 5675 5679 5681 5685 5688 5694 5698 5699 5703 5708 5712 5713 5715 5720 5723 5727 5732 5733 5734 5735 5739 5741 5743 5745 5745 5745 5746 5746 5745 5744 5746 5745 5745 5744 5743 5742 5740 5738 5738 5737 5736 5733
5662 5666 5669 5673 5677 5681 5684 5687 5692 5694 5696 5701 5705 5705 5707 5711 5714 5718 5723 5726 5727 5728 5729 5732 5734 5735 5735 5735 5735 5735 5734 5734 5734 5733 5732 5730 5728 5726 5725 5724 5724 5722 5720 5718
5660 5662 5664 5667 5671 5674 5677 5682 5684 5686 5689 5693 5696 5700 5702 5703 5705 5710 5712 5713 5714 5716 5718 5720 5722 5723 5723 5722 5722 5723 5723 5722 5722 5720 5718 5716 5714 5712 5710 5708 5706 5704 5702 5701
5655 5658 5660 5661 5664 5669 5671 5673 5677 5680 5682 5684 5689 5693 5696 5697 5700 5701 5703 5703 5704 5705 5707 5709 5711 5712 5712 5712 5711 5709 5708 5707 5706 5705 5703 5701 5699 5697 5695 5693 5690 5687 5686 5684
5650 5653 5654 5656 5658 5661 5664 5666 5669 5672 5676 5679 5682 5683 5686 5687 5689 5691 5693 5694 5694 5694 5695 5697 5698 5700 5700 5699 5698 5696 5694 5692 5691 5690 5688 5686 5683 5681 5679 5676 5673 5671 5669 5667
5642 5647 5649 5651 5655 5657 5659 5661 5664 5666 5668 5670 5673 5677 5679 5679 5679 5680 5682 5684 5686 5686 5687 5688 5687 5687 5686 5685 5684 5683 5681 5679 5677 5675 5673 5671 5668 5665 5662 5660 5657 5653 5650 5648
5638 5641 5644 5646 5649 5652 5653 5656 5658 5661 5662 5664 5665 5669 5671 5670 5670 5671 5673 5675 5676 5676 5676 5676 5675 5674 5673 5672 5671 5669 5667 5665 5663 5661 5659 5656 5653 5649 5645 5641 5637 5634 5630 5628
5634 5636 5639 5640 5642 5645 5648 5650 5652 5654 5656 5657 5661 5660 5664 5660 5663 5663 5664 5664 5665 5664 5664 5664 5664 5664 5663 5661 5659 5656 5654 5652 5649 5647 5643 5639 5635 5630 5626 5623 5620 5616 5612 5609
5628 5631 5633 5635 5637 5639 5641 5644 5645 5647 5649 5650 5651 5653 5654 5654 5654 5655 5654 5653 5653 5654 5653 5652 5652 5652 5650 5648 5646 5644 5642 5639 5636 5632 5628 5623 5619 5616 5611 5607 5603 5599 5595 5591
5623 5625 5627 5630 5631 5632 5635 5637 5637 5638 5640 5640 5641 5642 5644 5644 5644 5644 5644 5644 5643 5642 5642 5641 5640 5638 5636 5634 5632 5631 5629 5625 5620 5616 5612 5609 5605 5600 5595 5590 5586 5581 5576 5571
5617 5620 5622 5625 5625 5627 5628 5631 5631 5631 5631 5631 5631 5631 5632 5633 5633 5633 5633 5633 5633 5632 5630 5629 5627 5626 5624 5622 5620 5619 5615 5611 5608 5604 5600 5594 5590 5586 5580 5574 5568 5562 5556 5550
5610 5613 5616 5618 5620 5621 5622 5624 5625 5624 5624 5624 5623 5622 5623 5623 5624 5623 5623 5623 5621 5620 5618 5617 5615 5613 5612 5609 5608 5606 5602 5599 5595 5591 5586 5582 5576 5569 5563 5556 5548 5539 5531 5524
5605 5607 5610 5612 5613 5615 5616 5617 5617 5618 5618 5616 5614 5614 5615 5615 5616 5615 5613 5612 5611 5610 5607 5605 5603 5602 5600 5599 5597 5595 5592 5588 5583 5579 5574 5566 5560 5552 5544 5535 5525 5516 5506 5498
5599 5602 5603 5605 5607 5609 5610 5610 5611 5612 5614 5609 5609 5608 5608 5608 5607 5607 5604 5602 5600 5599 5598 5595 5594 5592 5590 5589 5588 5585 5582 5579 5574 5567 5560 5554 5545 5535 5523 5512 5500 5492 5484 5477
5594 5596 5599 5599 5601 5605 5605 5604 5606 5605 5603 5603 5603 5603 5602 5601 5600 5598 5595 5594 5592 5590 5588 5586 5585 5583 5582 5582 5581 5578 5574 5569 5563 5557 5549 5539 5527 5515 5504 5494 5482 5472 5465 5459
5589 5592 5593 5595 5597 5598 5599 5600 5600 5599 5598 5597 5596 5596 5596 5594 5592 5590 5587 5585 5583 5582 5581 5579 5579 5577 5577 5576 5574 5571 5566 5561 5554 5545 5535 5525 5513 5500 5488 5476 5464 5455 5448 5444
5582 5585 5587 5589 5591 5592 5591 5593 5593 5593 5592 5592 5591 5590 5588 5587 5584 5582 5579 5577 5576 5575 5574 5574 5573 5573 5572 5570 5568 5564 5558 5551 5544 5536 5526 5513 5500 5487 5473 5460 5447 5440 5437 5434
5577 5579 5581 5583 5584 5586 5587 5587 5586 5585 5585 5584 5583 5582 5580 5578 5575 5574 5572 5571 5570 5569 5569 5570 5570 5569 5568 5566 5562 5557 5551 5544 5537 5527 5515 5503 5490 5477 5461 5446 5437 5433 5430 5428
5571 5573 5575 5577 5578 5580 5580 5580 5579 5579 5578 5576 5575 5574 5572 5570 5568 5567 5566 5565 5564 5565 5566 5567 5566 5566 5564 5561 5557 5551 5545 5539 5531 5520 5508 5495 5482 5468 5452 5440 5431 5428 5427 5425